• In Portugal
  • List of Countries
  • For 7 days
  • Water Temperature
  • Satellite Maps
  • Weather Map
  • Weather Widgets
  • user-avatar
    Login

    Hourly Weather Algiers

    Today, 23 February, Friday

    Time Temperature Precipitation Wind Pressure Humidity
    00:00 +7°C° 0.2 mm 3 mps 741 mmHg 73%
    01:00 +7°C° 0.2 mm 3 mps 741 mmHg 72%
    02:00 +7°C° 0.2 mm 3 mps 740 mmHg 72%
    03:00 +7°C° 0.2 mm 3 mps 740 mmHg 72%
    04:00 +7°C° 0.2 mm 3 mps 740 mmHg 73%
    05:00 +7°C° 0.2 mm 3 mps 740 mmHg 74%
    06:00 +7°C° 0.2 mm 3 mps 740 mmHg 75%
    07:00 +8°C° 0.2 mm 3 mps 740 mmHg 72%
    08:00 +8°C° 0.2 mm 4 mps 740 mmHg 69%
    09:00 +10°C° 0.2 mm 4 mps 740 mmHg 66%
    10:00 +11°C° 0.1 mm 4 mps 741 mmHg 61%
    11:00 +12°C° 0.1 mm 5 mps 741 mmHg 56%
    12:00 +12°C° 0.1 mm 5 mps 741 mmHg 51%
    13:00 +12°C° 0.1 mm 5 mps 741 mmHg 51%
    14:00 +12°C° 0.1 mm 5 mps 741 mmHg 51%
    15:00 +13°C° 0.1 mm 5 mps 740 mmHg 51%
    16:00 +11°C° 0 mm 4 mps 740 mmHg 58%
    17:00 +9°C° 0 mm 3 mps 741 mmHg 66%
    18:00 +8°C° 0 mm 3 mps 741 mmHg 74%
    19:00 +7°C° 0 mm 2 mps 741 mmHg 77%
    20:00 +7°C° 0 mm 2 mps 741 mmHg 80%
    21:00 +7°C° 0 mm 1 mps 742 mmHg 83%
    22:00 +7°C° 0 mm 1 mps 742 mmHg 83%
    23:00 +6°C° 0 mm 2 mps 742 mmHg 83%

    Tomorrow, 24 February, Saturday

    Time Temperature Precipitation Wind Pressure Humidity
    00:00 +6°C° 0 mm 2 mps 742 mmHg 83%
    01:00 +6°C° 0 mm 2 mps 741 mmHg 82%
    02:00 +5°C° 0 mm 2 mps 741 mmHg 80%
    03:00 +5°C° 0 mm 2 mps 741 mmHg 79%
    04:00 +5°C° 0 mm 2 mps 741 mmHg 77%
    05:00 +5°C° 0 mm 2 mps 741 mmHg 76%
    06:00 +5°C° 0 mm 2 mps 741 mmHg 75%
    07:00 +7°C° 0 mm 3 mps 741 mmHg 69%
    08:00 +9°C° 0 mm 3 mps 741 mmHg 64%
    09:00 +10°C° 0 mm 3 mps 741 mmHg 58%
    10:00 +11°C° 0 mm 4 mps 741 mmHg 56%
    11:00 +13°C° 0 mm 4 mps 741 mmHg 53%
    12:00 +14°C° 0 mm 4 mps 741 mmHg 50%
    13:00 +14°C° 0 mm 5 mps 741 mmHg 53%
    14:00 +14°C° 0 mm 5 mps 741 mmHg 55%
    15:00 +14°C° 0 mm 5 mps 741 mmHg 58%
    16:00 +12°C° 0 mm 5 mps 741 mmHg 67%
    17:00 +9°C° 0 mm 5 mps 741 mmHg 75%
    18:00 +8°C° 0 mm 4 mps 742 mmHg 84%
    19:00 +7°C° 0.1 mm 4 mps 742 mmHg 86%
    20:00 +8°C° 0.1 mm 3 mps 743 mmHg 88%
    21:00 +7°C° 0.1 mm 3 mps 744 mmHg 90%
    22:00 +7°C° 0.1 mm 3 mps 744 mmHg 89%
    23:00 +7°C° 0.1 mm 2 mps 744 mmHg 89%

    Day after tomorrow, 25 February, Sunday

    Time Temperature Precipitation Wind Pressure Humidity
    00:00 +7°C° 0.1 mm 2 mps 744 mmHg 88%
    01:00 +7°C° 0 mm 2 mps 744 mmHg 88%
    02:00 +8°C° 0 mm 1 mps 744 mmHg 88%
    03:00 +8°C° 0 mm 1 mps 744 mmHg 88%
    04:00 +8°C° 0 mm 1 mps 744 mmHg 88%
    05:00 +8°C° 0 mm 1 mps 745 mmHg 88%
    06:00 +7°C° 0 mm 1 mps 745 mmHg 88%
    07:00 +8°C° 0.1 mm 1 mps 745 mmHg 81%
    08:00 +9°C° 0.1 mm 2 mps 746 mmHg 75%
    09:00 +10°C° 0.1 mm 2 mps 746 mmHg 68%
    10:00 +12°C° 0 mm 2 mps 746 mmHg 61%
    11:00 +12°C° 0 mm 3 mps 746 mmHg 55%
    12:00 +13°C° 0 mm 3 mps 746 mmHg 49%
    13:00 +13°C° 0 mm 3 mps 746 mmHg 48%
    14:00 +13°C° 0 mm 4 mps 746 mmHg 48%
    15:00 +13°C° 0 mm 4 mps 745 mmHg 48%
    16:00 +12°C° 0 mm 4 mps 745 mmHg 55%
    17:00 +10°C° 0 mm 3 mps 746 mmHg 62%
    18:00 +9°C° 0 mm 3 mps 746 mmHg 68%
    19:00 +9°C° 0 mm 3 mps 746 mmHg 70%
    20:00 +8°C° 0 mm 3 mps 746 mmHg 71%
    21:00 +8°C° 0 mm 3 mps 747 mmHg 72%
    22:00 +8°C° 0 mm 3 mps 746 mmHg 71%
    23:00 +7°C° 0 mm 3 mps 746 mmHg 70%

    26 February, Monday

    Time Temperature Precipitation Wind Pressure Humidity
    00:00 +7°C° 0 mm 3 mps 746 mmHg 69%
    01:00 +7°C° 0 mm 3 mps 746 mmHg 68%
    02:00 +7°C° 0 mm 3 mps 745 mmHg 66%
    03:00 +7°C° 0 mm 3 mps 745 mmHg 65%
    04:00 +7°C° 0 mm 3 mps 745 mmHg 63%
    05:00 +7°C° 0 mm 3 mps 744 mmHg 60%
    06:00 +7°C° 0 mm 3 mps 744 mmHg 58%
    07:00 +9°C° 0 mm 3 mps 744 mmHg 54%
    08:00 +12°C° 0 mm 2 mps 744 mmHg 50%
    09:00 +14°C° 0 mm 2 mps 744 mmHg 46%
    10:00 +16°C° 0 mm 2 mps 743 mmHg 41%
    11:00 +18°C° 0 mm 2 mps 742 mmHg 37%
    12:00 +19°C° 0 mm 2 mps 742 mmHg 32%
    13:00 +20°C° 0 mm 3 mps 741 mmHg 35%
    14:00 +20°C° 0 mm 4 mps 740 mmHg 38%
    15:00 +20°C° 0 mm 5 mps 739 mmHg 40%
    16:00 +17°C° 0 mm 5 mps 739 mmHg 47%
    17:00 +15°C° 0 mm 5 mps 739 mmHg 54%
    18:00 +13°C° 0 mm 5 mps 739 mmHg 61%
    19:00 +13°C° 0 mm 5 mps 739 mmHg 60%
    20:00 +13°C° 0 mm 5 mps 739 mmHg 59%
    21:00 +13°C° 0 mm 5 mps 739 mmHg 58%
    22:00 +13°C° 0 mm 5 mps 739 mmHg 61%
    23:00 +12°C° 0 mm 5 mps 739 mmHg 65%

    27 February, Tuesday

    Time Temperature Precipitation Wind Pressure Humidity
    00:00 +12°C° 0 mm 5 mps 739 mmHg 68%
    01:00 +10°C° 0 mm 5 mps 739 mmHg 73%
    02:00 +10°C° 0 mm 5 mps 739 mmHg 77%
    03:00 +9°C° 0 mm 5 mps 739 mmHg 82%
    04:00 +9°C° 0 mm 5 mps 739 mmHg 85%
    05:00 +10°C° 0 mm 4 mps 740 mmHg 88%
    06:00 +10°C° 0 mm 4 mps 740 mmHg 91%
    07:00 +11°C° 0.1 mm 3 mps 741 mmHg 87%
    08:00 +11°C° 0.1 mm 3 mps 741 mmHg 84%
    09:00 +12°C° 0.1 mm 3 mps 741 mmHg 80%
    10:00 +12°C° 0.2 mm 3 mps 742 mmHg 78%
    11:00 +12°C° 0.2 mm 3 mps 742 mmHg 75%
    12:00 +14°C° 0.2 mm 2 mps 742 mmHg 72%
    13:00 +14°C° 0.1 mm 2 mps 741 mmHg 72%
    14:00 +14°C° 0.1 mm 2 mps 741 mmHg 73%
    15:00 +13°C° 0.1 mm 3 mps 741 mmHg 73%
    16:00 +12°C° 0.1 mm 3 mps 742 mmHg 77%
    17:00 +11°C° 0.1 mm 3 mps 742 mmHg 80%
    18:00 +11°C° 0.1 mm 4 mps 742 mmHg 83%
    19:00 +10°C° 0 mm 4 mps 743 mmHg 84%
    20:00 +10°C° 0 mm 4 mps 743 mmHg 84%
    21:00 +10°C° 0 mm 4 mps 744 mmHg 85%
    22:00 +9°C° 0 mm 5 mps 744 mmHg 85%
    23:00 +9°C° 0 mm 5 mps 744 mmHg 84%

    28 February, Wednesday

    Time Temperature Precipitation Wind Pressure Humidity
    00:00 +9°C° 0 mm 5 mps 744 mmHg 84%
    01:00 +9°C° 0 mm 5 mps 743 mmHg 84%
    02:00 +9°C° 0 mm 5 mps 743 mmHg 84%
    03:00 +9°C° 0 mm 5 mps 743 mmHg 83%
    04:00 +9°C° 0 mm 5 mps 743 mmHg 83%
    05:00 +9°C° 0 mm 5 mps 743 mmHg 82%
    06:00 +10°C° 0 mm 4 mps 742 mmHg 82%
    07:00 +11°C° 0 mm 4 mps 742 mmHg 76%
    08:00 +13°C° 0 mm 4 mps 742 mmHg 71%
    09:00 +15°C° 0 mm 4 mps 742 mmHg 65%
    10:00 +18°C° 0 mm 4 mps 742 mmHg 57%
    11:00 +20°C° 0 mm 4 mps 741 mmHg 49%
    12:00 +22°C° 0 mm 4 mps 741 mmHg 41%
    13:00 +23°C° 0 mm 4 mps 740 mmHg 38%
    14:00 +25°C° 0 mm 4 mps 739 mmHg 35%
    15:00 +26°C° 0 mm 3 mps 738 mmHg 32%
    16:00 +24°C° 0 mm 3 mps 737 mmHg 33%
    17:00 +21°C° 0 mm 3 mps 737 mmHg 34%
    18:00 +19°C° 0 mm 3 mps 737 mmHg 35%
    19:00 +19°C° 0 mm 3 mps 737 mmHg 35%
    20:00 +18°C° 0 mm 4 mps 737 mmHg 34%
    21:00 +18°C° 0 mm 4 mps 737 mmHg 34%
    22:00 +17°C° 0 mm 4 mps 738 mmHg 41%
    23:00 +14°C° 0 mm 4 mps 738 mmHg 49%
    Show more